sat.trackr.live / text

‹ back to catalog

ELECTRON KICK STAGE R/B

NORAD 69703 · 2026-146C

ROCKET_BODY UNKNOWN UNKNOWN

§ Identity

Operator
Country
US
Launch date
2026-06-26
Launch site
RLLB
Launch vehicle
Mass (kg)
RCS (m²)

External: N2YO · Heavens-Above · Gunter

§ Orbital elements

Epoch: 2026-07-25T13:34:33.381696Z

Period
95.68 min
Inclination
41.9885°
Eccentricity
0.0008162
Mean motion
15.05011291 rev/d
Perigee alt
545.8 km
Apogee alt
557.1 km
Semi-major
6,929.6 km
B*
3.1491e-4
RAAN
315.5098°
Arg perigee
99.8926°
Mean anomaly
260.2822°
Rev number
434

§ Raw data

ELECTRON KICK STAGE R/B1 69703U 26146C   26206.56566414  .00004359  00000+0  31491-3 0  99982 69703  41.9885 315.5098 0008162  99.8926 260.2822 15.05011291  4341

JSON: /api/v1/satellites/69703 · /tle

For live sub-satellite position, see the globe view (requires WebGL).

§ Visibility from observer

Set your observer location to see the next 7 days of passes ≥ 10°. The values pass through the URL so the page stays shareable.

No JS? Fill the form by hand. The geolocation button needs JavaScript.